Location: Brantley
(31.5822°N, 86.2569°W)
Time: 21:10:48
(UTC+00:00)

S-56A Canister/Altair - Visible Passes

Search period start: 18 February 2026 00:00
Search period end: 28 February 2026 00:00
Orbit: 632 x 2485 km, 38.9° (Epoch: 18 February)

Date Brightness Start Highest point End Pass type
(mag) Time Alt. Az. Time Alt. Az. Time Alt. Az.
18 Feb 9.6 08:46:59 53° ENE 08:46:59 53° ENE 08:56:38 10° E visible
18 Feb 9.5 10:44:15 31° WNW 10:50:13 69° SSW 11:04:11 10° SE visible
19 Feb 10.3 08:14:10 33° E 08:14:10 33° E 08:20:24 10° E visible
19 Feb 9.2 10:11:27 50° W 10:14:43 75° SSW 10:28:16 10° SE visible
20 Feb 10.9 07:41:24 19° E 07:41:24 19° E 07:44:12 10° E visible
20 Feb 8.9 09:38:40 79° WSW 09:39:17 82° SSW 09:52:17 10° ESE visible
20 Feb 10.3 11:35:57 12° W 11:44:44 35° SW 11:56:54 10° SSE visible
21 Feb 9.3 09:05:58 64° ESE 09:05:58 64° ESE 09:16:15 10° ESE visible
21 Feb 9.9 11:03:15 23° W 11:09:15 39° SW 11:21:30 10° SSE visible
22 Feb 10.0 08:33:18 38° ESE 08:33:18 38° ESE 08:40:11 10° ESE visible
22 Feb 9.5 10:30:36 36° WSW 10:33:47 44° SW 10:45:58 10° SSE visible
23 Feb 9.2 01:37:05 10° SSW 01:38:22 17° S 01:38:22 17° S visible
23 Feb 10.7 08:00:42 22° ESE 08:00:42 22° ESE 08:04:07 10° ESE visible
23 Feb 9.3 09:57:59 48° SW 09:58:25 48° SSW 10:10:21 10° SE visible
24 Feb 8.6 01:02:46 10° SSW 01:05:48 21° SSE 01:05:48 21° SSE visible
24 Feb 9.6 09:25:26 46° S 09:25:26 46° S 09:34:39 10° SE visible
24 Feb 10.5 11:22:43 12° WSW 11:28:18 18° SW 11:36:08 10° S visible
25 Feb 8.9 00:28:35 10° S 00:31:32 17° SE 00:33:13 14° ESE visible
25 Feb 10.0 02:30:08 10° WSW 02:30:29 12° WSW 02:30:29 12° WSW visible
25 Feb 10.2 08:52:54 32° SE 08:52:54 32° SE 08:58:54 10° SE visible
25 Feb 10.2 10:50:12 19° WSW 10:52:55 21° SW 11:01:20 10° S visible
26 Feb 8.5 01:55:23 10° WSW 01:57:53 33° WSW 01:57:53 33° WSW visible
26 Feb 10.8 08:20:25 19° SE 08:20:25 19° SE 08:23:08 10° SE visible
26 Feb 10.2 10:17:42 24° SW 10:17:42 24° SW 10:26:19 10° S visible
27 Feb 7.0 01:20:37 10° SW 01:25:10 66° SSE 01:25:14 65° SE visible
27 Feb 10.3 09:45:13 23° SSW 09:45:13 23° SSW 09:51:10 10° SSE visible
